Voltar ao catálogo

STARLINK-5266

AtivoComunicaçõesVLEO
NORAD 55290·PAYLOAD·🇺🇸 United States

Lançado Jan 19, 2023 de Vandenberg Space Force Base

Loading…

Próximas Passagens (próximas 24 horas)

TLE

AtualizadoSource: CelesTrak SupGP

Época: Sep 14, 2026, 21:24 UTC

1 55290C 23010X   26257.89215278  .00065000  00000+0  54470-2 0  2570
2 55290  69.9995 267.4423 0003824 265.2489 287.4765 14.98297797    14

Acompanhe STARLINK-5266 em tempo real com AllMySat

Download on the App Store